User: anonymous   Login
Location: ??
(35.5052°N, 139.7262°E)
Time: 22:13:06
(UTC+00:00)
Language:

OAO 1 - Orbit

View from above orbital plane
View from above orbital plane
View from above satellite
View from above satellite

Ground track
Ground track

The orbit data is extracted from the following two-line orbital elements,

1  2142U 66031A   21266.41500990 -.00000047  00000-0 -97986-5 0  9997
2  2142  35.0466  48.5951 0006581  72.1756 287.9649 14.33901516903320
Epoch (UTC): 23 September 2021 09:57:36
Eccentricity: 0.0006581
inclination: 35.0466°
perigee height: 774 km
apogee height: 783 km
right ascension of ascending node: 48.5951°
argument of perigee: 72.1756°
revolutions per day: 14.33901516
mean anomaly at epoch: 287.9649°
orbit number at epoch: 90332

The dashed part of the orbit path shows where the satellite is in the earth's shadow,  

DLR